| time (UTC) | temp F | wind direction | speed MPH | gust MPH | rain 1hr in | rain 24hr in | rain mn in | humidity % | barometer mb |
| 20260906225020 | 60 | 278 | 2.0 | 7.0 | 0.00 | 0.00 | 0.00 | 84 | 1017.4 |
| 20260906224539 | 59 | 283 | 2.0 | 9.0 | 0.00 | 0.00 | 0.00 | 85 | 1017.5 |
| 20260906224019 | 59 | 288 | 5.0 | 9.0 | 0.00 | 0.00 | 0.00 | 85 | 1017.6 |
| 20260906223517 | 58 | 243 | 4.0 | 8.0 | 0.00 | 0.00 | 0.00 | 84 | 1017.5 |
| 20260906223053 | 58 | 283 | 5.0 | 8.0 | 0.00 | 0.00 | 0.00 | 85 | 1017.6 |
| 20260906222518 | 58 | 269 | 4.0 | 11.0 | 0.00 | 0.00 | 0.00 | 85 | 1017.4 |
| 20260906222018 | 58 | 266 | 6.0 | 11.0 | 0.00 | 0.00 | 0.00 | 87 | 1017.5 |
| 20260906221543 | 58 | 273 | 5.0 | 9.0 | 0.00 | 0.00 | 0.00 | 88 | 1017.5 |
| 20260906221023 | 57 | 267 | 7.0 | 9.0 | 0.00 | 0.00 | 0.00 | 87 | 1017.6 |
| 20260906220518 | 57 | 291 | 6.0 | 9.0 | 0.00 | 0.00 | 0.00 | 87 | 1017.6 |
| 20260906220041 | 57 | 277 | 6.0 | 9.0 | 0.00 | 0.00 | 0.00 | 89 | 1017.7 |
| 20260906215519 | 56 | 269 | 2.0 | 7.0 | 0.00 | 0.00 | 0.00 | 90 | 1017.7 |
| 20260906215017 | 56 | 279 | 3.0 | 9.0 | 0.00 | 0.00 | 0.00 | 91 | 1017.7 |
| 20260906214559 | 56 | 264 | 2.0 | 8.0 | 0.00 | 0.00 | 0.00 | 91 | 1017.7 |
| 20260906214018 | 56 | 281 | 4.0 | 9.0 | 0.00 | 0.00 | 0.00 | 92 | 1017.7 |
| 20260906213519 | 55 | 284 | 6.0 | 9.0 | 0.00 | 0.00 | 0.00 | 92 | 1017.6 |
| 20260906213043 | 55 | 276 | 4.0 | 8.0 | 0.00 | 0.00 | 0.00 | 92 | 1017.7 |
| 20260906212515 | 55 | 284 | 4.0 | 10.0 | 0.00 | 0.00 | 0.00 | 92 | 1017.8 |
| 20260906212018 | 55 | 270 | 8.0 | 10.0 | 0.00 | 0.00 | 0.00 | 91 | 1017.8 |
| 20260906211552 | 55 | 272 | 6.0 | 9.0 | 0.00 | 0.00 | 0.00 | 92 | 1017.8 |
| 20260906211019 | 55 | 271 | 5.0 | 9.0 | 0.00 | 0.00 | 0.00 | 91 | 1017.8 |
| 20260906210520 | 55 | 288 | 5.0 | 10.0 | 0.00 | 0.00 | 0.00 | 92 | 1017.8 |
| 20260906210049 | 55 | 271 | 6.0 | 10.0 | 0.00 | 0.00 | 0.00 | 90 | 1017.8 |
| 20260906205517 | 55 | 286 | 5.0 | 10.0 | 0.00 | 0.00 | 0.00 | 91 | 1017.9 |
| 20260906205017 | 56 | 277 | 5.0 | 9.0 | 0.00 | 0.00 | 0.00 | 90 | 1017.9 |
| 20260906204548 | 56 | 264 | 6.0 | 9.0 | 0.00 | 0.00 | 0.00 | 91 | 1017.8 |
| 20260906204018 | 56 | 279 | 4.0 | 9.0 | 0.00 | 0.00 | 0.00 | 91 | 1017.8 |
| 20260906203518 | 56 | 268 | 6.0 | 9.0 | 0.00 | 0.00 | 0.00 | 90 | 1017.7 |
| 20260906203053 | 56 | 263 | 4.0 | 9.0 | 0.00 | 0.00 | 0.00 | 90 | 1017.8 |
| 20260906202519 | 56 | 272 | 4.0 | 9.0 | 0.00 | 0.00 | 0.00 | 90 | 1017.7 |
| 20260906202018 | 56 | 286 | 3.0 | 8.0 | 0.00 | 0.00 | 0.00 | 91 | 1017.8 |
| 20260906201550 | 56 | 226 | 2.0 | 7.0 | 0.00 | 0.00 | 0.00 | 90 | 1017.8 |
| 20260906201021 | 56 | 195 | 1.0 | 8.0 | 0.00 | 0.00 | 0.00 | 90 | 1017.9 |
| 20260906200520 | 55 | 171 | 3.0 | 8.0 | 0.00 | 0.00 | 0.00 | 90 | 1017.9 |
| 20260906200048 | 56 | 175 | 3.0 | 7.0 | 0.00 | 0.00 | 0.00 | 90 | 1018.0 |
| 20260906195515 | 55 | 209 | 4.0 | 7.0 | 0.00 | 0.00 | 0.00 | 90 | 1018.1 |
| 20260906195016 | 56 | 188 | 4.0 | 8.0 | 0.00 | 0.00 | 0.00 | 91 | 1018.0 |
| 20260906194555 | 56 | 202 | 3.0 | 8.0 | 0.00 | 0.00 | 0.00 | 90 | 1018.1 |
| 20260906193518 | 56 | 203 | 2.0 | 6.0 | 0.00 | 0.00 | 0.00 | 91 | 1018.0 |
| 20260906193050 | 56 | 190 | 2.0 | 7.0 | 0.00 | 0.00 | 0.00 | 91 | 1018.0 |
| 20260906192519 | 55 | 196 | 4.0 | 7.0 | 0.00 | 0.00 | 0.00 | 89 | 1018.2 |
| 20260906192019 | 56 | 198 | 2.0 | 6.0 | 0.00 | 0.00 | 0.00 | 91 | 1018.1 |
| 20260906191605 | 56 | 192 | 1.0 | 6.0 | 0.00 | 0.00 | 0.00 | 91 | 1018.1 |
| 20260906191020 | 56 | 192 | 3.0 | 6.0 | 0.00 | 0.00 | 0.00 | 89 | 1018.1 |
| 20260906190518 | 56 | 217 | 2.0 | 6.0 | 0.00 | 0.00 | 0.00 | 90 | 1018.2 |
| 20260906190059 | 56 | 186 | 2.0 | 6.0 | 0.00 | 0.00 | 0.00 | 90 | 1018.2 |
| 20260906185517 | 56 | 211 | 2.0 | 5.0 | 0.00 | 0.00 | 0.00 | 90 | 1018.2 |
| 20260906185019 | 55 | 216 | 2.0 | 5.0 | 0.00 | 0.00 | 0.00 | 91 | 1018.2 |
| 20260906184601 | 55 | 216 | 2.0 | 5.0 | 0.00 | 0.00 | 0.00 | 91 | 1018.2 |
| 20260906183517 | 55 | 200 | 3.0 | 6.0 | 0.00 | 0.00 | 0.00 | 91 | 1018.0 |
| 20260906183102 | 55 | 177 | 3.0 | 6.0 | 0.00 | 0.00 | 0.00 | 91 | 1018.2 |
| 20260906182519 | 55 | 190 | 3.0 | 9.0 | 0.00 | 0.00 | 0.00 | 91 | 1018.2 |
| 20260906182020 | 55 | 195 | 5.0 | 9.0 | 0.00 | 0.00 | 0.00 | 90 | 1018.4 |
| 20260906181552 | 55 | 207 | 5.0 | 9.0 | 0.00 | 0.00 | 0.00 | 91 | 1018.3 |
| 20260906181021 | 55 | 198 | 5.0 | 9.0 | 0.00 | 0.00 | 0.00 | 91 | 1018.1 |
| 20260906180519 | 55 | 174 | 5.0 | 9.0 | 0.00 | 0.00 | 0.00 | 90 | 1018.2 |
| 20260906180108 | 55 | 170 | 4.0 | 8.0 | 0.00 | 0.00 | 0.00 | 91 | 1018.3 |
| 20260906175517 | 56 | 198 | 5.0 | 8.0 | 0.00 | 0.00 | 0.00 | 90 | 1018.3 |
| 20260906175017 | 56 | 159 | 3.0 | 6.0 | 0.00 | 0.00 | 0.00 | 93 | 1018.1 |
| 20260906174557 | 55 | 195 | 2.0 | 5.0 | 0.00 | 0.00 | 0.00 | 94 | 1018.3 |
| 20260906174017 | 55 | 162 | 3.0 | 6.0 | 0.00 | 0.00 | 0.00 | 95 | 1018.4 |
| 20260906173055 | 54 | 117 | 2.0 | 6.0 | 0.00 | 0.00 | 0.00 | 97 | 1018.3 |
| 20260906172019 | 53 | 143 | 0.0 | 4.0 | 0.00 | 0.00 | 0.00 | 97 | 1018.4 |
| 20260906171557 | 53 | 160 | 0.0 | 4.0 | 0.00 | 0.00 | 0.00 | 97 | 1018.3 |
| 20260906171018 | 53 | 160 | 0.0 | 2.0 | 0.00 | 0.00 | 0.00 | 98 | 1018.4 |
| 20260906170519 | 53 | 160 | 0.0 | 2.0 | 0.00 | 0.00 | 0.00 | 98 | 1018.4 |
| 20260906170057 | 53 | 160 | 0.0 | 2.0 | 0.00 | 0.00 | 0.00 | 98 | 1018.3 |
| 20260906165519 | 53 | 159 | 0.0 | 2.0 | 0.00 | 0.00 | 0.00 | 98 | 1018.3 |
| 20260906165017 | 52 | 160 | 0.0 | 5.0 | 0.00 | 0.00 | 0.00 | 98 | 1018.3 |
| 20260906164600 | 52 | 160 | 2.0 | 5.0 | 0.00 | 0.00 | 0.00 | 98 | 1018.4 |
| 20260906163116 | 52 | 169 | 4.0 | 6.0 | 0.00 | 0.00 | 0.00 | 98 | 1018.3 |
| 20260906162018 | 52 | 144 | 2.0 | 7.0 | 0.00 | 0.00 | 0.00 | 98 | 1018.4 |
| 20260906161605 | 52 | 148 | 3.0 | 7.0 | 0.00 | 0.00 | 0.00 | 98 | 1018.3 |
| 20260906161019 | 52 | 146 | 1.0 | 6.0 | 0.00 | 0.00 | 0.00 | 98 | 1018.3 |
| 20260906160517 | 52 | 157 | 1.0 | 8.0 | 0.00 | 0.00 | 0.00 | 98 | 1018.2 |
| 20260906154552 | 52 | 125 | 4.0 | 11.0 | 0.00 | 0.00 | 0.00 | 98 | 1018.1 |
| 20260906153522 | 52 | 155 | 3.0 | 8.0 | 0.00 | 0.00 | 0.00 | 98 | 1018.0 |
| 20260906153053 | 52 | 154 | 3.0 | 10.0 | 0.00 | 0.00 | 0.00 | 98 | 1018.0 |
| 20260906152523 | 51 | 151 | 5.0 | 10.0 | 0.00 | 0.00 | 0.00 | 98 | 1017.9 |
| 20260906152017 | 51 | 180 | 6.0 | 10.0 | 0.00 | 0.00 | 0.00 | 98 | 1017.8 |
| 20260906151609 | 51 | 153 | 4.0 | 9.0 | 0.00 | 0.00 | 0.00 | 98 | 1017.8 |
| 20260906151017 | 51 | 203 | 4.0 | 9.0 | 0.00 | 0.00 | 0.00 | 98 | 1017.9 |
| 20260906150518 | 51 | 169 | 4.0 | 9.0 | 0.00 | 0.00 | 0.00 | 98 | 1017.9 |
| 20260906150057 | 51 | 155 | 5.0 | 10.0 | 0.00 | 0.00 | 0.00 | 98 | 1017.7 |
| 20260906145018 | 51 | 155 | 2.0 | 8.0 | 0.00 | 0.00 | 0.00 | 98 | 1018.0 |
| 20260906144555 | 51 | 175 | 3.0 | 8.0 | 0.00 | 0.00 | 0.00 | 98 | 1018.0 |
| 20260906143055 | 51 | 171 | 1.0 | 5.0 | 0.00 | 0.00 | 0.00 | 98 | 1018.0 |
| 20260906142517 | 51 | 171 | 3.0 | 5.0 | 0.00 | 0.00 | 0.00 | 98 | 1017.8 |
| 20260906142021 | 51 | 163 | 1.0 | 7.0 | 0.00 | 0.00 | 0.00 | 98 | 1017.7 |
| 20260906141604 | 51 | 196 | 2.0 | 10.0 | 0.00 | 0.00 | 0.00 | 97 | 1017.7 |
| 20260906141023 | 51 | 186 | 6.0 | 10.0 | 0.00 | 0.00 | 0.00 | 97 | 1017.7 |
| 20260906140524 | 51 | 182 | 3.0 | 7.0 | 0.00 | 0.00 | 0.00 | 97 | 1017.7 |
| 20260906140106 | 51 | 183 | 5.0 | 7.0 | 0.00 | 0.00 | 0.00 | 97 | 1017.7 |
| 20260906135518 | 51 | 156 | 4.0 | 7.0 | 0.00 | 0.00 | 0.00 | 97 | 1017.6 |
| 20260906135017 | 51 | 150 | 4.0 | 7.0 | 0.00 | 0.00 | 0.00 | 97 | 1017.6 |
| 20260906134554 | 51 | 149 | 3.0 | 7.0 | 0.00 | 0.00 | 0.00 | 97 | 1017.7 |
| 20260906134019 | 51 | 120 | 0.0 | 3.0 | 0.00 | 0.00 | 0.00 | 97 | 1017.8 |
| 20260906133119 | 51 | 112 | 0.0 | 4.0 | 0.00 | 0.00 | 0.00 | 97 | 1017.8 |
| 20260906132518 | 51 | 119 | 2.0 | 4.0 | 0.00 | 0.00 | 0.00 | 97 | 1017.7 |
| 20260906132020 | 51 | 119 | 1.0 | 2.0 | 0.00 | 0.00 | 0.00 | 97 | 1017.7 |
| 20260906131615 | 51 | 119 | 1.0 | 3.0 | 0.00 | 0.00 | 0.00 | 97 | 1017.6 |
| 20260906131020 | 52 | 119 | 1.0 | 3.0 | 0.00 | 0.00 | 0.00 | 97 | 1017.6 |
| 20260906130518 | 52 | 80 | 1.0 | 3.0 | 0.00 | 0.00 | 0.00 | 97 | 1017.7 |
| 20260906130112 | 52 | 74 | 0.0 | 2.0 | 0.00 | 0.00 | 0.00 | 98 | 1017.8 |
| 20260906125520 | 52 | 67 | 0.0 | 1.0 | 0.00 | 0.00 | 0.00 | 98 | 1017.7 |
| 20260906125019 | 52 | 67 | 0.0 | 1.0 | 0.00 | 0.00 | 0.00 | 97 | 1017.7 |
| 20260906124556 | 52 | 65 | 0.0 | 0.0 | 0.00 | 0.00 | 0.00 | 97 | 1017.7 |
| 20260906124017 | 52 | 65 | 0.0 | 0.0 | 0.00 | 0.00 | 0.00 | 97 | 1017.7 |
| 20260906123518 | 52 | 65 | 0.0 | 1.0 | 0.00 | 0.00 | 0.00 | 97 | 1017.7 |
| 20260906123102 | 52 | 65 | 0.0 | 2.0 | 0.00 | 0.00 | 0.00 | 97 | 1017.6 |
| 20260906122019 | 52 | 74 | 1.0 | 4.0 | 0.00 | 0.00 | 0.00 | 97 | 1017.6 |
| 20260906121559 | 52 | 68 | 0.0 | 3.0 | 0.00 | 0.00 | 0.00 | 97 | 1017.6 |
| 20260906120518 | 52 | 82 | 0.0 | 6.0 | 0.00 | 0.00 | 0.00 | 97 | 1017.5 |
| 20260906120101 | 52 | 82 | 1.0 | 6.0 | 0.00 | 0.00 | 0.00 | 97 | 1017.3 |
| 20260906115520 | 52 | 86 | 3.0 | 6.0 | 0.00 | 0.00 | 0.00 | 97 | 1017.2 |
| 20260906115019 | 52 | 113 | 3.0 | 5.0 | 0.00 | 0.00 | 0.00 | 97 | 1017.2 |
| 20260906114554 | 52 | 127 | 2.0 | 4.0 | 0.00 | 0.00 | 0.00 | 97 | 1017.2 |
| 20260906113052 | 51 | 130 | 2.0 | 6.0 | 0.00 | 0.00 | 0.00 | 97 | 1017.2 |
| 20260906112019 | 51 | 141 | 3.0 | 5.0 | 0.00 | 0.00 | 0.00 | 97 | 1017.2 |
| 20260906111551 | 51 | 147 | 2.0 | 4.0 | 0.00 | 0.00 | 0.00 | 96 | 1017.1 |
| 20260906111019 | 52 | 147 | 2.0 | 5.0 | 0.00 | 0.00 | 0.00 | 96 | 1017.1 |
| 20260906110517 | 52 | 136 | 4.0 | 5.0 | 0.00 | 0.00 | 0.00 | 96 | 1017.0 |
| 20260906110056 | 52 | 120 | 3.0 | 6.0 | 0.00 | 0.00 | 0.00 | 96 | 1017.0 |
| 20260906105516 | 51 | 112 | 3.0 | 8.0 | 0.00 | 0.00 | 0.00 | 96 | 1017.0 |
| 20260906104555 | 51 | 101 | 6.0 | 8.0 | 0.00 | 0.00 | 0.00 | 95 | 1016.9 |
| 20260906103053 | 52 | 83 | 4.0 | 8.0 | 0.00 | 0.00 | 0.00 | 93 | 1017.0 |
| 20260906102520 | 53 | 100 | 6.0 | 8.0 | 0.00 | 0.00 | 0.00 | 94 | 1017.1 |
| 20260906101556 | 53 | 98 | 7.0 | 8.0 | 0.00 | 0.00 | 0.00 | 92 | 1016.9 |
| 20260906101019 | 53 | 93 | 7.0 | 8.0 | 0.00 | 0.00 | 0.00 | 92 | 1016.8 |
| 20260906100523 | 54 | 86 | 3.0 | 9.0 | 0.00 | 0.00 | 0.00 | 92 | 1016.9 |
| 20260906100106 | 54 | 53 | 3.0 | 9.0 | 0.00 | 0.00 | 0.00 | 92 | 1017.1 |
| 20260906095520 | 54 | 23 | 5.0 | 9.0 | 0.00 | 0.00 | 0.00 | 91 | 1017.1 |
| 20260906094557 | 55 | 15 | 2.0 | 4.0 | 0.00 | 0.00 | 0.00 | 84 | 1017.1 |
| 20260906093057 | 56 | 77 | 1.0 | 8.0 | 0.00 | 0.00 | 0.00 | 82 | 1017.0 |
| 20260906092523 | 56 | 113 | 4.0 | 10.0 | 0.00 | 0.00 | 0.00 | 83 | 1016.8 |
| 20260906092019 | 56 | 111 | 7.0 | 10.0 | 0.00 | 0.00 | 0.00 | 83 | 1016.7 |
| 20260906091606 | 56 | 116 | 6.0 | 9.0 | 0.00 | 0.00 | 0.00 | 83 | 1016.6 |
| 20260906090125 | 57 | 125 | 5.0 | 8.0 | 0.00 | 0.00 | 0.00 | 80 | 1016.8 |
| 20260906085020 | 58 | 130 | 4.0 | 5.0 | 0.00 | 0.00 | 0.00 | 77 | 1016.7 |
| 20260906084559 | 58 | 124 | 3.0 | 4.0 | 0.00 | 0.00 | 0.00 | 76 | 1016.8 |
| 20260906083519 | 58 | 128 | 0.0 | 0.0 | 0.00 | 0.00 | 0.00 | 75 | 1016.8 |
| 20260906083100 | 59 | 26 | 0.0 | 0.0 | 0.00 | 0.00 | 0.00 | 74 | 1016.7 |
| 20260906082520 | 59 | 26 | 0.0 | 0.0 | 0.00 | 0.00 | 0.00 | 71 | 1016.7 |
| 20260906081601 | 60 | 26 | 0.0 | 1.0 | 0.00 | 0.00 | 0.00 | 71 | 1016.7 |
| 20260906075520 | 61 | 26 | 1.0 | 4.0 | 0.00 | 0.00 | 0.00 | 66 | 1016.7 |
| 20260906075019 | 61 | 26 | 1.0 | 4.0 | 0.00 | 0.00 | 0.00 | 66 | 1016.7 |
| 20260906074622 | 61 | 34 | 1.0 | 3.0 | 0.00 | 0.00 | 0.00 | 66 | 1016.6 |
| 20260906073103 | 61 | 32 | 1.0 | 4.0 | 0.00 | 0.00 | 0.00 | 64 | 1016.5 |
| 20260906071602 | 61 | 51 | 0.0 | 2.0 | 0.00 | 0.00 | 0.00 | 66 | 1016.5 |
| 20260906070126 | 61 | 325 | 0.0 | 0.0 | 0.00 | 0.00 | 0.00 | 64 | 1016.5 |
| 20260906064618 | 61 | 325 | 0.0 | 0.0 | 0.00 | 0.00 | 0.00 | 63 | 1016.5 |
| 20260906063103 | 62 | 325 | 0.0 | 0.0 | 0.00 | 0.00 | 0.00 | 58 | 1016.5 |
| 20260906061602 | 61 | 325 | 0.0 | 0.0 | 0.00 | 0.00 | 0.00 | 59 | 1016.4 |
| 20260906061019 | 62 | 325 | 0.0 | 1.0 | 0.00 | 0.00 | 0.00 | 58 | 1016.4 |
| 20260906060521 | 62 | 325 | 0.0 | 2.0 | 0.00 | 0.00 | 0.00 | 58 | 1016.4 |
| 20260906060129 | 62 | 325 | 1.0 | 3.0 | 0.00 | 0.00 | 0.00 | 58 | 1016.4 |
| 20260906054621 | 62 | 325 | 2.0 | 3.0 | 0.00 | 0.00 | 0.00 | 56 | 1016.6 |
| 20260906053106 | 63 | 51 | 0.0 | 0.0 | 0.00 | 0.00 | 0.00 | 58 | 1016.5 |
| 20260906051620 | 64 | 51 | 0.0 | 0.0 | 0.00 | 0.00 | 0.00 | 56 | 1016.2 |
| 20260906051019 | 64 | 51 | 0.0 | 0.0 | 0.00 | 0.00 | 0.00 | 58 | 1016.4 |
| 20260906050519 | 65 | 51 | 0.0 | 0.0 | 0.00 | 0.00 | 0.00 | 59 | 1016.3 |
| 20260906050104 | 65 | 51 | 0.0 | 0.0 | 0.00 | 0.00 | 0.00 | 53 | 1016.3 |
| 20260906044535 | 65 | 51 | 0.0 | 0.0 | 0.00 | 0.00 | 0.00 | 53 | 1016.3 |
| 20260906044019 | 64 | 51 | 0.0 | 2.0 | 0.00 | 0.00 | 0.00 | 54 | 1016.3 |
| 20260906043516 | 64 | 51 | 0.0 | 3.0 | 0.00 | 0.00 | 0.00 | 55 | 1016.3 |
| 20260906043038 | 64 | 51 | 0.0 | 3.0 | 0.00 | 0.00 | 0.00 | 56 | 1016.5 |
| 20260906042520 | 64 | 49 | 0.0 | 2.0 | 0.00 | 0.00 | 0.00 | 56 | 1016.5 |
| 20260906042019 | 64 | 50 | 0.0 | 5.0 | 0.00 | 0.00 | 0.00 | 58 | 1016.5 |
| 20260906041545 | 64 | 50 | 0.0 | 5.0 | 0.00 | 0.00 | 0.00 | 58 | 1016.5 |
| 20260906041019 | 64 | 49 | 1.0 | 4.0 | 0.00 | 0.00 | 0.00 | 59 | 1016.5 |
| 20260906040518 | 64 | 44 | 1.0 | 5.0 | 0.00 | 0.00 | 0.00 | 61 | 1016.6 |
| 20260906040046 | 64 | 24 | 2.0 | 5.0 | 0.00 | 0.00 | 0.00 | 59 | 1016.5 |
| 20260906035519 | 63 | 27 | 2.0 | 5.0 | 0.00 | 0.00 | 0.00 | 65 | 1016.7 |
| 20260906035018 | 63 | 51 | 1.0 | 5.0 | 0.00 | 0.00 | 0.00 | 67 | 1016.5 |
| 20260906034019 | 63 | 105 | 2.0 | 6.0 | 0.00 | 0.00 | 0.00 | 67 | 1016.6 |
| 20260906033519 | 63 | 183 | 0.0 | 0.0 | 0.00 | 0.00 | 0.00 | 67 | 1016.7 |
| 20260906033041 | 63 | 183 | 0.0 | 0.0 | 0.00 | 0.00 | 0.00 | 64 | 1016.6 |
| 20260906032517 | 63 | 183 | 0.0 | 0.0 | 0.00 | 0.00 | 0.00 | 59 | 1016.5 |
| 20260906032017 | 63 | 183 | 0.0 | 0.0 | 0.00 | 0.00 | 0.00 | 67 | 1016.5 |
| 20260906031541 | 64 | 183 | 0.0 | 0.0 | 0.00 | 0.00 | 0.00 | 65 | 1016.4 |
| 20260906031018 | 64 | 183 | 0.0 | 2.0 | 0.00 | 0.00 | 0.00 | 64 | 1016.3 |
| 20260906030518 | 64 | 183 | 0.0 | 3.0 | 0.00 | 0.00 | 0.00 | 64 | 1016.3 |
| 20260906030046 | 64 | 183 | 1.0 | 3.0 | 0.00 | 0.00 | 0.00 | 63 | 1016.4 |
| 20260906025518 | 65 | 183 | 1.0 | 4.0 | 0.00 | 0.00 | 0.00 | 63 | 1016.5 |
| 20260906025018 | 65 | 183 | 1.0 | 4.0 | 0.00 | 0.00 | 0.00 | 63 | 1016.4 |
| 20260906024541 | 66 | 183 | 2.0 | 4.0 | 0.00 | 0.00 | 0.00 | 62 | 1016.4 |
| 20260906024019 | 66 | 183 | 2.0 | 3.0 | 0.00 | 0.00 | 0.00 | 61 | 1016.2 |
| 20260906023520 | 67 | 183 | 2.0 | 4.0 | 0.00 | 0.00 | 0.00 | 60 | 1016.4 |
| 20260906023046 | 68 | 183 | 1.0 | 4.0 | 0.00 | 0.00 | 0.00 | 56 | 1016.3 |
| 20260906022517 | 67 | 183 | 1.0 | 3.0 | 0.00 | 0.00 | 0.00 | 53 | 1016.3 |
| 20260906022023 | 67 | 183 | 1.0 | 3.0 | 0.00 | 0.00 | 0.00 | 56 | 1016.4 |
| 20260906021539 | 67 | 183 | 2.0 | 4.0 | 0.00 | 0.00 | 0.00 | 60 | 1016.4 |
| 20260906021019 | 67 | 183 | 2.0 | 4.0 | 0.00 | 0.00 | 0.00 | 62 | 1016.4 |
| 20260906020518 | 67 | 183 | 2.0 | 5.0 | 0.00 | 0.00 | 0.00 | 63 | 1016.4 |
| 20260906020047 | 67 | 183 | 2.0 | 6.0 | 0.00 | 0.00 | 0.00 | 62 | 1016.4 |
| 20260906015517 | 67 | 186 | 4.0 | 5.0 | 0.00 | 0.00 | 0.00 | 61 | 1016.5 |
| 20260906014546 | 68 | 186 | 2.0 | 5.0 | 0.00 | 0.00 | 0.00 | 62 | 1016.6 |
| 20260906014018 | 68 | 186 | 3.0 | 5.0 | 0.00 | 0.00 | 0.00 | 61 | 1016.6 |
| 20260906013519 | 69 | 231 | 3.0 | 5.0 | 0.00 | 0.00 | 0.00 | 61 | 1016.5 |
| 20260906013044 | 69 | 265 | 2.0 | 4.0 | 0.00 | 0.00 | 0.00 | 61 | 1016.6 |
| 20260906012517 | 69 | 228 | 2.0 | 5.0 | 0.00 | 0.00 | 0.00 | 61 | 1016.6 |
| 20260906012019 | 69 | 205 | 3.0 | 5.0 | 0.00 | 0.00 | 0.00 | 60 | 1016.5 |
| 20260906011546 | 68 | 195 | 2.0 | 5.0 | 0.00 | 0.00 | 0.00 | 60 | 1016.6 |
| 20260906010517 | 70 | 219 | 2.0 | 5.0 | 0.00 | 0.00 | 0.00 | 57 | 1016.5 |
| 20260906010043 | 71 | 251 | 2.0 | 5.0 | 0.00 | 0.00 | 0.00 | 58 | 1016.5 |
| 20260906005519 | 71 | 181 | 2.0 | 5.0 | 0.00 | 0.00 | 0.00 | 59 | 1016.6 |
| 20260906005022 | 70 | 196 | 2.0 | 5.0 | 0.00 | 0.00 | 0.00 | 58 | 1016.4 |
| 20260906004549 | 69 | 178 | 3.0 | 5.0 | 0.00 | 0.00 | 0.00 | 59 | 1016.5 |
| 20260906004018 | 70 | 175 | 2.0 | 5.0 | 0.00 | 0.00 | 0.00 | 58 | 1016.5 |
| 20260906003518 | 71 | 201 | 2.0 | 4.0 | 0.00 | 0.00 | 0.00 | 56 | 1016.5 |
| 20260906003046 | 72 | 246 | 1.0 | 3.0 | 0.00 | 0.00 | 0.00 | 58 | 1016.6 |
| 20260906002516 | 72 | 246 | 0.0 | 5.0 | 0.00 | 0.00 | 0.00 | 59 | 1016.7 |
| 20260906002020 | 71 | 225 | 1.0 | 5.0 | 0.00 | 0.00 | 0.00 | 58 | 1016.8 |
| 20260906001543 | 72 | 233 | 2.0 | 5.0 | 0.00 | 0.00 | 0.00 | 59 | 1016.7 |
| 20260906001018 | 72 | 259 | 2.0 | 5.0 | 0.00 | 0.00 | 0.00 | 55 | 1016.8 |
| 20260906000523 | 73 | 279 | 3.0 | 5.0 | 0.00 | 0.00 | 0.00 | 56 | 1016.7 |
| 20260906000042 | 73 | 292 | 2.0 | 5.0 | 0.00 | 0.00 | 0.00 | 53 | 1016.9 |
| 20260905235519 | 74 | 292 | 2.0 | 5.0 | 0.00 | 0.00 | 0.00 | 55 | 1016.8 |
| 20260905235019 | 74 | 295 | 2.0 | 4.0 | 0.00 | 0.00 | 0.00 | 58 | 1016.9 |
| 20260905234547 | 74 | 237 | 1.0 | 4.0 | 0.00 | 0.00 | 0.00 | 54 | 1016.8 |
| 20260905234019 | 75 | 237 | 2.0 | 6.0 | 0.00 | 0.00 | 0.00 | 53 | 1017.0 |
| 20260905233516 | 75 | 207 | 3.0 | 6.0 | 0.00 | 0.00 | 0.00 | 49 | 1017.0 |
| 20260905233102 | 76 | 245 | 2.0 | 6.0 | 0.00 | 0.00 | 0.00 | 46 | 1017.1 |
| 20260905232517 | 76 | 267 | 3.0 | 6.0 | 0.00 | 0.00 | 0.00 | 47 | 1017.2 |
| 20260905231551 | 77 | 277 | 2.0 | 4.0 | 0.00 | 0.00 | 0.00 | 44 | 1017.3 |
| 20260905231019 | 76 | 277 | 2.0 | 5.0 | 0.00 | 0.00 | 0.00 | 45 | 1017.5 |
| 20260905230520 | 76 | 277 | 2.0 | 6.0 | 0.00 | 0.00 | 0.00 | 47 | 1017.6 |
| 20260905230048 | 78 | 277 | 2.0 | 4.0 | 0.00 | 0.00 | 0.00 | 40 | 1017.6 |
| 20260905225517 | 78 | 277 | 1.0 | 5.0 | 0.00 | 0.00 | 0.00 | 42 | 1017.6 |